Tracking 30696 objects as of 15-Jun-2025
HD Live streaming from Space Station
objects crossing your sky now

METEOR 2-8 DEB

Track METEOR 2-8 DEB now!
10-day predictions


NORAD ID: 36319
Int'l Code: 1982-025D
Perigee: 777.6 km
Apogee: 817.0 km
Inclination: 82.5 °
Period: 100.7 minutes
Semi major axis: 7168 km
RCS: 0.0062 m2 (small)
Launch date: March 25, 1982
Source: Commonwealth of Independent States (former USSR) (CIS)
Launch site: PLESETSK MISSILE AND SPACE COMPLEX (PKMTR)

Note: This is SATELLITE DEBRIS
Your satellite tracking list
Your tracking list is empty




NASA's NSSDC Master Catalog

Two Line Element Set (TLE):
1 36319U 82025D   25164.60596408  .00009920  00000-0  37870-2 0  9992
2 36319  82.5197 123.8372 0027463  31.6004 328.6823 14.30469864142248
Source of the keplerian elements: AFSPC